No particular awareness of the weather is required.    There are no Weather-warnings


Meteo18 Weather Cam more information Meteo18 Weather Cam


Thunder radar more information blitzortung!


Rain radar more information rain snow radar


Visit our other weather sites:

Template documentation
and downloads

And another site



Weather Underground History page Text

Daily Summary for January 12, 2018 Units:  Metric    English   Both
« Previous Day
Next Day »
Daily Weekly Monthly Yearly Custom
  High: Low: Average:
Temperature: -17.8 °C -15.9 °C -14.6 °C
Dew Point: -17.8 °C -16.1 °C -15.1 °C
Humidity: Humidity % 88 % 94 %
Wind Speed: 0 km/h 0 km/h 6.4 km/h
Wind Gust: 0 km/h - -
Wind:- - SW
Pressure: 0 hPa 34591.4 hPa -
Precipitation: 38.1 mm    
Historical Graphs
 
 
Tabular Data for January 12, 2018
Time Temperature Dew Point Pressure Wind Wind Speed Wind Gust Humidity Rainfall Rate (Hourly)
-17.8 °C -17.8 °C 0 hPa Calm     Humidity % 0 mm
00:11 -14.4 °C -14.7 °C 34591.4 hPa North 2.3 km/h 12.9 km/h 96 % 7.62 mm
00:17 -14.4 °C -14.8 °C 34591.4 hPa North 7.6 km/h 12.9 km/h 95 % 0 mm
00:23 -14.4 °C -14.8 °C 34601.5 hPa NNW 2.3 km/h 15.6 km/h 95 % 0 mm
00:27 -14.4 °C -14.8 °C 34601.5 hPa North 5.1 km/h 10.3 km/h 95 % 0 mm
00:33 -14.4 °C -14.8 °C 34601.5 hPa NNE 5.1 km/h 15.6 km/h 95 % 0 mm
00:39 -14.4 °C -14.8 °C 34601.5 hPa NNE 7.6 km/h 15.6 km/h 95 % 0 mm
00:49 -14.4 °C -14.8 °C 34601.5 hPa NNE 12.7 km/h 18.2 km/h 95 % 0 mm
01:01 -14.3 °C -14.7 °C 34601.5 hPa NNE 10.3 km/h 23.3 km/h 95 % 0 mm
01:07 -14.3 °C -14.7 °C 34601.5 hPa NE 5.1 km/h 12.9 km/h 95 % 0 mm
01:13 -14.3 °C -14.7 °C 34611.7 hPa NNE 12.7 km/h 18.2 km/h 95 % 0 mm
01:19 -14.3 °C -14.7 °C 34611.7 hPa North 2.3 km/h 7.7 km/h 95 % 0 mm
01:23 -14.3 °C -14.7 °C 34611.7 hPa NE 7.6 km/h 15.6 km/h 95 % 0 mm
01:29 -14.3 °C -14.7 °C 34611.7 hPa NNE 2.3 km/h 10.3 km/h 96 % 0 mm
01:35 -14.3 °C -14.7 °C 34611.7 hPa NNE 7.6 km/h 12.9 km/h 96 % 0 mm
01:41 -14.3 °C -14.7 °C 34611.7 hPa NNE 5.1 km/h 15.6 km/h 96 % 0 mm
01:47 -14.3 °C -14.7 °C 34611.7 hPa NNW 7.6 km/h 10.3 km/h 96 % 0 mm
01:55 -14.3 °C -14.7 °C 34611.7 hPa NE 10.3 km/h 23.3 km/h 96 % 0 mm
01:59 -14.3 °C -14.7 °C 34611.7 hPa NW 7.6 km/h 15.6 km/h 96 % 0 mm
02:09 -14.3 °C -14.7 °C 34611.7 hPa NE 12.7 km/h 23.3 km/h 96 % 0 mm
02:15 -14.3 °C -14.7 °C 34625.2 hPa NE 5.1 km/h 18.2 km/h 96 % 0 mm
02:21 -14.3 °C -14.7 °C 34611.7 hPa NNW 7.6 km/h 23.3 km/h 96 % 0 mm
02:27 -14.4 °C -14.7 °C 34625.2 hPa NE 12.7 km/h 23.3 km/h 96 % 0 mm
02:33 -14.4 °C -14.7 °C 34625.2 hPa NW 15.6 km/h 20.8 km/h 96 % 7.62 mm
02:39 -14.4 °C -14.7 °C 34625.2 hPa NNW 10.3 km/h 23.3 km/h 96 % 12.7 mm
02:45 -14.4 °C -14.7 °C 34625.2 hPa NNW 7.6 km/h 15.6 km/h 96 % 12.7 mm
02:51 -14.4 °C -14.8 °C 34625.2 hPa NW 7.6 km/h 18.2 km/h 96 % 12.7 mm
02:57 -14.4 °C -14.8 °C 34625.2 hPa NNW 7.6 km/h 10.3 km/h 96 % 20.32 mm
03:03 -14.4 °C -14.8 °C 34635.4 hPa North 20.9 km/h 20.9 km/h 96 % 33.02 mm
03:09 -14.4 °C -14.8 °C 34635.4 hPa NNW 5.1 km/h 15.6 km/h 96 % 38.1 mm
03:21 -14.5 °C -14.8 °C 34635.4 hPa NW 10.3 km/h 18.2 km/h 96 % 38.1 mm
03:27 -14.5 °C -14.8 °C 34635.4 hPa NNW 10.3 km/h 18.2 km/h 96 % 38.1 mm
03:33 -14.4 °C -14.8 °C 34635.4 hPa North 15.6 km/h 23.3 km/h 96 % 38.1 mm
03:39 -14.5 °C -14.8 °C 34635.4 hPa NNE 10.3 km/h 20.8 km/h 96 % 33.02 mm
03:51 -14.5 °C -14.8 °C 34635.4 hPa NNE 5.1 km/h 20.8 km/h 96 % 25.4 mm
03:57 -14.5 °C -14.8 °C 34635.4 hPa NNE 7.6 km/h 23.3 km/h 96 % 20.32 mm
04:09 -14.5 °C -14.8 °C 34635.4 hPa North 12.7 km/h 23.3 km/h 96 % 7.62 mm
04:15 -14.6 °C -14.9 °C 34635.4 hPa North 12.7 km/h 20.8 km/h 96 % 0 mm
04:21 -14.6 °C -14.9 °C 34635.4 hPa NNE 12.7 km/h 28.5 km/h 96 % 0 mm
04:28 -14.6 °C -14.9 °C 34635.4 hPa North 12.7 km/h 18.2 km/h 96 % 0 mm
04:34 -14.6 °C -14.9 °C 34635.4 hPa North 10.3 km/h 20.8 km/h 96 % 0 mm
04:40 -14.6 °C -14.9 °C 34635.4 hPa ENE 2.3 km/h 23.3 km/h 96 % 0 mm
04:46 -14.6 °C -14.9 °C 34635.4 hPa North 10.3 km/h 20.8 km/h 96 % 0 mm
04:52 -14.6 °C -14.9 °C 34635.4 hPa NNW 7.6 km/h 23.3 km/h 96 % 0 mm
05:00 -14.6 °C -14.9 °C 34635.4 hPa North 10.3 km/h 20.8 km/h 96 % 0 mm
05:06 -14.6 °C -14.9 °C 34645.6 hPa North 23 km/h 23.3 km/h 96 % 0 mm
05:12 -14.6 °C -14.9 °C 34645.6 hPa NNW 7.6 km/h 20.8 km/h 96 % 0 mm
05:18 -14.6 °C -15 °C 34645.6 hPa North 10.3 km/h 20.8 km/h 95 % 0 mm
05:24 -14.6 °C -15 °C 34645.6 hPa NNW 12.7 km/h 20.8 km/h 95 % 0 mm
05:30 -14.6 °C -15 °C 34645.6 hPa North 2.3 km/h 10.3 km/h 95 % 0 mm
05:42 -14.7 °C -15.1 °C 34635.4 hPa North 12.7 km/h 15.6 km/h 95 % 0 mm
05:48 -14.7 °C -15.1 °C 34645.6 hPa NNW 5.1 km/h 12.9 km/h 95 % 0 mm
05:50 -14.7 °C -15.1 °C 34645.6 hPa NNW 10.3 km/h 15.6 km/h 95 % 0 mm
05:56 -14.8 °C -15.2 °C 34645.6 hPa NNE 2.3 km/h 10.3 km/h 95 % 0 mm
06:02 -14.7 °C -15.1 °C 34645.6 hPa NNW 7.6 km/h 10.3 km/h 96 % 0 mm
06:08 -14.7 °C -15 °C 34645.6 hPa West 5.1 km/h 12.9 km/h 96 % 0 mm
06:14 -14.7 °C -15 °C 34659.1 hPa Calm   5.1 km/h 96 % 0 mm
06:20 -14.6 °C -14.9 °C 34659.1 hPa North 10.3 km/h 12.9 km/h 96 % 0 mm
06:26 -14.6 °C -14.9 °C 34659.1 hPa North 5.1 km/h 18.2 km/h 96 % 0 mm
06:32 -14.6 °C -14.9 °C 34659.1 hPa NNE 5.1 km/h 15.6 km/h 96 % 0 mm
06:38 -14.6 °C -14.9 °C 34669.3 hPa NE 15.6 km/h 15.6 km/h 96 % 0 mm
06:44 -14.6 °C -14.9 °C 34669.3 hPa NW 2.3 km/h 15.6 km/h 96 % 0 mm
06:50 -14.6 °C -14.9 °C 34669.3 hPa North 2.3 km/h 20.8 km/h 96 % 0 mm
07:02 -14.6 °C -14.9 °C 34669.3 hPa NNE 12.7 km/h 12.9 km/h 96 % 0 mm
07:08 -14.6 °C -14.9 °C 34669.3 hPa NNW 5.1 km/h 12.9 km/h 96 % 0 mm
07:14 -14.6 °C -14.9 °C 34669.3 hPa NNW 10.3 km/h 20.8 km/h 96 % 0 mm
07:26 -14.6 °C -14.9 °C 34669.3 hPa NE 7.6 km/h 18.2 km/h 96 % 0 mm
07:32 -14.6 °C -14.9 °C 34669.3 hPa NNW 7.6 km/h 20.8 km/h 96 % 0 mm
07:38 -14.6 °C -14.8 °C 34669.3 hPa North 17.9 km/h 20.8 km/h 97 % 0 mm
07:44 -14.6 °C -14.8 °C 34669.3 hPa North 7.6 km/h 15.6 km/h 97 % 0 mm
07:50 -14.6 °C -14.8 °C 34669.3 hPa North 10.3 km/h 12.9 km/h 97 % 0 mm
07:56 -14.6 °C -14.8 °C 34669.3 hPa NNW 7.6 km/h 18.2 km/h 97 % 0 mm
08:02 -14.6 °C -14.8 °C 34669.3 hPa North 12.7 km/h 12.9 km/h 97 % 0 mm
08:08 -14.6 °C -14.8 °C 34682.8 hPa North 10.3 km/h 12.9 km/h 97 % 0 mm
08:14 -14.6 °C -14.8 °C 34682.8 hPa NNW 2.3 km/h 12.9 km/h 97 % 0 mm
08:30 -14.6 °C -14.8 °C 34682.8 hPa North 5.1 km/h 12.9 km/h 97 % 0 mm
09:06 -14.6 °C -14.8 °C 34682.8 hPa NNW 7.6 km/h 15.6 km/h 97 % 0 mm
09:18 -14.6 °C -14.8 °C 34682.8 hPa NNW 7.6 km/h 15.6 km/h 97 % 0 mm
09:24 -14.6 °C -14.8 °C 34693 hPa North 7.6 km/h 18.2 km/h 97 % 0 mm
09:30 -14.7 °C -15 °C 34693 hPa NNW 7.6 km/h 10.3 km/h 96 % 0 mm
09:36 -14.7 °C -15 °C 34693 hPa NNE 7.6 km/h 15.6 km/h 96 % 0 mm
09:42 -14.7 °C -15 °C 34703.1 hPa North 2.3 km/h 7.7 km/h 96 % 0 mm
09:48 -14.7 °C -15 °C 34703.1 hPa NE 5.1 km/h 10.3 km/h 96 % 0 mm
09:54 -14.6 °C -14.9 °C 34703.1 hPa NE 12.7 km/h 12.9 km/h 96 % 0 mm
10:04 -14.6 °C -14.9 °C 34703.1 hPa North 5.1 km/h 5.1 km/h 96 % 0 mm
10:10 -14.6 °C -14.9 °C 34703.1 hPa Calm   10.3 km/h 95 % 0 mm
10:22 -14.5 °C -14.9 °C 34716.7 hPa NNE 5.1 km/h 7.7 km/h 95 % 0 mm
10:30 -14.5 °C -14.9 °C 34716.7 hPa Calm   7.7 km/h 95 % 0 mm
10:36 -14.5 °C -14.9 °C 34716.7 hPa North 2.3 km/h 5.1 km/h 95 % 0 mm
10:42 -14.4 °C -14.8 °C 34726.8 hPa NNW 2.3 km/h 7.7 km/h 95 % 0 mm
10:48 -14.4 °C -14.8 °C 34726.8 hPa NNW 7.6 km/h 7.7 km/h 95 % 0 mm
10:55 -14.4 °C -14.8 °C 34726.8 hPa NNW 2.3 km/h 10.3 km/h 95 % 0 mm
11:01 -14.4 °C -14.8 °C 34726.8 hPa North 15.6 km/h 15.6 km/h 95 % 0 mm
11:07 -14.4 °C -14.8 °C 34726.8 hPa NNE 5.1 km/h 7.7 km/h 95 % 0 mm
11:13 -14.4 °C -14.8 °C 34726.8 hPa North 5.1 km/h 7.7 km/h 95 % 0 mm
11:21 -14.4 °C -14.8 °C 34726.8 hPa NNW 7.6 km/h 20.8 km/h 95 % 0 mm
11:27 -14.3 °C -14.7 °C 34726.8 hPa NW 7.6 km/h 12.9 km/h 95 % 0 mm
11:39 -14.3 °C -14.8 °C 34726.8 hPa NNW 5.1 km/h 18.2 km/h 94 % 0 mm
11:47 -14.3 °C -14.8 °C 34726.8 hPa North 12.7 km/h 12.9 km/h 94 % 0 mm
11:53 -14.3 °C -14.8 °C 34726.8 hPa NNW 7.6 km/h 12.9 km/h 94 % 0 mm
12:01 -14.2 °C -14.8 °C 34726.8 hPa NNW 5.1 km/h 12.9 km/h 93 % 0 mm
12:07 -14.2 °C -14.8 °C 34716.7 hPa NNE 12.7 km/h 20.8 km/h 93 % 0 mm
12:13 -14.3 °C -14.8 °C 34716.7 hPa NW 12.7 km/h 23.3 km/h 93 % 0 mm
12:19 -14.3 °C -14.8 °C 34716.7 hPa NNW 12.7 km/h 15.6 km/h 93 % 0 mm
12:25 -14.3 °C -14.8 °C 34716.7 hPa North 12.7 km/h 18.2 km/h 93 % 0 mm
12:31 -14.3 °C -14.8 °C 34716.7 hPa NNW 7.6 km/h 20.8 km/h 93 % 0 mm
12:37 -14.2 °C -14.8 °C 34716.7 hPa NNE 12.7 km/h 15.6 km/h 93 % 0 mm
12:43 -14.2 °C -14.9 °C 34716.7 hPa NNW 15.6 km/h 20.8 km/h 92 % 0 mm
12:49 -14.2 °C -14.9 °C 34716.7 hPa North 2.3 km/h 15.6 km/h 92 % 0 mm
12:55 -14.1 °C -14.8 °C 34716.7 hPa NNE 15.6 km/h 18.2 km/h 92 % 0 mm
13:01 -14.1 °C -14.8 °C 34703.1 hPa NNW 10.3 km/h 18.2 km/h 92 % 0 mm
13:07 -14.1 °C -14.8 °C 34703.1 hPa NW 20.9 km/h 23.3 km/h 92 % 0 mm
13:13 -14.1 °C -14.7 °C 34703.1 hPa NE 10.3 km/h 18.2 km/h 92 % 0 mm
13:19 -14 °C -14.7 °C 34703.1 hPa North 5.1 km/h 18.2 km/h 92 % 0 mm
13:25 -13.9 °C -14.7 °C 34703.1 hPa North 23 km/h 23.3 km/h 91 % 0 mm
13:31 -13.9 °C -14.7 °C 34703.1 hPa North 10.3 km/h 12.9 km/h 91 % 0 mm
13:37 -13.9 °C -14.7 °C 34703.1 hPa NNE 5.1 km/h 10.3 km/h 91 % 0 mm
13:43 -13.9 °C -14.7 °C 34693 hPa NE 12.7 km/h 18.2 km/h 91 % 0 mm
13:49 -13.9 °C -14.8 °C 34693 hPa NNW 7.6 km/h 23.3 km/h 90 % 0 mm
13:55 -13.8 °C -14.7 °C 34693 hPa ENE 10.3 km/h 18.2 km/h 90 % 0 mm
14:01 -13.8 °C -14.8 °C 34693 hPa NNW 7.6 km/h 25.9 km/h 89 % 0 mm
14:07 -13.8 °C -14.9 °C 34693 hPa NNE 7.6 km/h 23.3 km/h 88 % 0 mm
14:13 -13.8 °C -14.8 °C 34693 hPa North 7.6 km/h 20.8 km/h 89 % 0 mm
14:19 -13.8 °C -14.8 °C 34693 hPa NNE 5.1 km/h 18.2 km/h 89 % 0 mm
14:31 -13.8 °C -14.9 °C 34693 hPa NE 5.1 km/h 15.6 km/h 88 % 0 mm
14:37 -13.8 °C -14.9 °C 34682.8 hPa NNW 7.6 km/h 20.8 km/h 88 % 0 mm
14:43 -13.9 °C -14.9 °C 34682.8 hPa NNE 7.6 km/h 20.8 km/h 88 % 0 mm
14:49 -13.9 °C -14.9 °C 34682.8 hPa NNW 12.7 km/h 15.6 km/h 88 % 0 mm
14:55 -13.9 °C -14.9 °C 34682.8 hPa NW 5.1 km/h 12.9 km/h 88 % 0 mm
15:01 -13.9 °C -14.9 °C 34682.8 hPa North 7.6 km/h 15.6 km/h 88 % 0 mm
15:07 -14 °C -14.9 °C 34682.8 hPa NNW 10.3 km/h 10.3 km/h 89 % 0 mm
15:13 -13.9 °C -14.9 °C 34682.8 hPa NNE 12.7 km/h 15.6 km/h 89 % 0 mm
15:19 -13.9 °C -14.9 °C 34682.8 hPa North 5.1 km/h 10.3 km/h 89 % 0 mm
15:25 -13.9 °C -14.9 °C 34682.8 hPa NNW 2.3 km/h 10.3 km/h 89 % 0 mm
15:31 -13.9 °C -14.8 °C 34682.8 hPa North 5.1 km/h 7.7 km/h 89 % 0 mm
15:37 -13.8 °C -14.8 °C 34682.8 hPa North 2.3 km/h 7.7 km/h 89 % 0 mm
15:43 -13.8 °C -14.8 °C 34682.8 hPa NW 2.3 km/h 5.1 km/h 89 % 0 mm
15:55 -13.9 °C -14.9 °C 34682.8 hPa NNE 10.3 km/h 15.6 km/h 89 % 0 mm
16:15 -13.9 °C -14.9 °C 34682.8 hPa Calm   10.3 km/h 89 % 0 mm
16:21 -13.9 °C -14.8 °C 34693 hPa North 2.3 km/h 5.1 km/h 90 % 0 mm
16:31 -13.9 °C -14.9 °C 34682.8 hPa North 2.3 km/h 5.1 km/h 89 % 0 mm
16:37 -13.9 °C -14.9 °C 34682.8 hPa North 5.1 km/h 5.1 km/h 89 % 0 mm
16:43 -13.9 °C -14.9 °C 34693 hPa NNW 2.3 km/h 5.1 km/h 89 % 0 mm
16:49 -13.9 °C -14.9 °C 34682.8 hPa NNE 2.3 km/h 2.6 km/h 89 % 0 mm
16:55 -13.9 °C -14.8 °C 34693 hPa NW 2.3 km/h 2.6 km/h 90 % 0 mm
17:01 -14 °C -14.8 °C 34693 hPa NW 2.3 km/h 5.1 km/h 90 % 0 mm
17:07 -13.9 °C -14.8 °C 34693 hPa WNW 2.3 km/h 7.7 km/h 90 % 0 mm
17:13 -14 °C -14.8 °C 34693 hPa West 2.3 km/h 12.9 km/h 90 % 0 mm
17:19 -14 °C -14.8 °C 34693 hPa WNW 5.1 km/h 12.9 km/h 90 % 0 mm
17:29 -14.1 °C -14.9 °C 34693 hPa NW 10.3 km/h 18.2 km/h 91 % 0 mm
17:37 -14.2 °C -15 °C 34693 hPa NNW 7.6 km/h 12.9 km/h 91 % 0 mm
17:43 -14.2 °C -15 °C 34693 hPa NNW 2.3 km/h 7.7 km/h 91 % 0 mm
17:55 -14.2 °C -14.9 °C 34693 hPa North 7.6 km/h 10.3 km/h 92 % 0 mm
18:01 -14.2 °C -14.9 °C 34693 hPa NNW 5.1 km/h 7.7 km/h 92 % 0 mm
18:11 -14.2 °C -14.9 °C 34693 hPa NW 2.3 km/h 7.7 km/h 92 % 0 mm
18:18 -14.2 °C -14.9 °C 34703.1 hPa NNW 5.1 km/h 12.9 km/h 92 % 0 mm
18:24 -14.2 °C -14.9 °C 34703.1 hPa NNW 7.6 km/h 7.7 km/h 92 % 0 mm
18:36 -14.3 °C -14.9 °C 34703.1 hPa NW 2.3 km/h 10.3 km/h 92 % 0 mm
18:42 -14.3 °C -14.9 °C 34703.1 hPa NNW 2.3 km/h 7.7 km/h 92 % 0 mm
18:48 -14.3 °C -14.9 °C 34703.1 hPa Calm   10.3 km/h 92 % 0 mm
18:56 -14.3 °C -14.9 °C 34703.1 hPa NW 2.3 km/h 12.9 km/h 92 % 0 mm
19:02 -14.3 °C -14.9 °C 34703.1 hPa Calm   10.3 km/h 92 % 0 mm
19:14 -14.3 °C -15 °C 34703.1 hPa NW 5.1 km/h 7.7 km/h 92 % 0 mm
19:20 -14.4 °C -15.1 °C 34703.1 hPa Calm   7.7 km/h 92 % 0 mm
19:26 -14.4 °C -15 °C 34703.1 hPa NNW 7.6 km/h 10.3 km/h 93 % 0 mm
19:32 -14.5 °C -15.1 °C 34703.1 hPa NNW 2.3 km/h 5.1 km/h 93 % 0 mm
19:38 -14.6 °C -15.1 °C 34703.1 hPa Calm   5.1 km/h 93 % 0 mm
19:44 -14.6 °C -15.2 °C 34703.1 hPa NW 2.3 km/h 2.6 km/h 93 % 0 mm
19:50 -14.7 °C -15.2 °C 34703.1 hPa NNW 2.3 km/h 2.6 km/h 93 % 0 mm
19:56 -14.8 °C -15.3 °C 34703.1 hPa NW 5.1 km/h 7.7 km/h 94 % 0 mm
20:02 -14.8 °C -15.3 °C 34703.1 hPa NNW 5.1 km/h 7.7 km/h 94 % 0 mm
20:08 -14.8 °C -15.3 °C 34703.1 hPa NNW 2.3 km/h 7.7 km/h 94 % 0 mm
20:14 -14.8 °C -15.3 °C 34703.1 hPa Calm   7.7 km/h 94 % 0 mm
20:26 -14.9 °C -15.4 °C 34703.1 hPa NW 7.6 km/h 7.7 km/h 94 % 0 mm
20:32 -15 °C -15.5 °C 34703.1 hPa NNW 2.3 km/h 7.7 km/h 94 % 0 mm
20:38 -15.1 °C -15.6 °C 34703.1 hPa NNW 5.1 km/h 7.7 km/h 94 % 0 mm
20:44 -15.1 °C -15.6 °C 34703.1 hPa North 2.3 km/h 5.1 km/h 94 % 0 mm
20:50 -15.2 °C -15.7 °C 34703.1 hPa NNW 2.3 km/h 2.6 km/h 94 % 0 mm
20:56 -15.2 °C -15.6 °C 34703.1 hPa Calm   5.1 km/h 95 % 0 mm
21:08 -15.3 °C -15.7 °C 34703.1 hPa Calm     95 % 0 mm
21:16 -15.3 °C -15.7 °C 34703.1 hPa Calm   2.6 km/h 95 % 0 mm
21:22 -15.4 °C -15.8 °C 34703.1 hPa Calm   2.6 km/h 95 % 0 mm
21:29 -15.4 °C -15.8 °C 34703.1 hPa North 2.3 km/h 2.6 km/h 95 % 0 mm
21:39 -15.4 °C -15.7 °C 34703.1 hPa NW 5.1 km/h 7.7 km/h 96 % 0 mm
21:45 -15.4 °C -15.8 °C 34703.1 hPa NW 2.3 km/h 5.1 km/h 96 % 0 mm
21:51 -15.4 °C -15.7 °C 34703.1 hPa NW 2.3 km/h 5.1 km/h 96 % 0 mm
22:01 -15.4 °C -15.7 °C 34703.1 hPa NW 2.3 km/h 2.6 km/h 96 % 0 mm
22:07 -15.4 °C -15.7 °C 34703.1 hPa NNW 2.3 km/h 5.1 km/h 96 % 0 mm
22:17 -15.6 °C -15.9 °C 34703.1 hPa Calm   5.1 km/h 96 % 0 mm
22:25 -15.6 °C -15.9 °C 34693 hPa NNE 2.3 km/h 5.1 km/h 96 % 0 mm
22:31 -15.6 °C -15.9 °C 34693 hPa Calm   2.6 km/h 96 % 0 mm
22:37 -15.6 °C -15.9 °C 34693 hPa Calm   2.6 km/h 96 % 0 mm
22:43 -15.7 °C -16 °C 34693 hPa Calm   2.6 km/h 96 % 0 mm
22:49 -15.7 °C -16.1 °C 34693 hPa Calm   2.6 km/h 96 % 0 mm
22:55 -15.7 °C -16.1 °C 34693 hPa Calm   2.6 km/h 96 % 0 mm
23:07 -15.7 °C -15.9 °C 34693 hPa NW 2.3 km/h 5.1 km/h 97 % 0 mm
23:13 -15.7 °C -15.9 °C 34693 hPa NW 2.3 km/h 5.1 km/h 97 % 0 mm
23:21 -15.7 °C -15.9 °C 34693 hPa Calm   5.1 km/h 97 % 0 mm
23:27 -15.7 °C -15.9 °C 34693 hPa NNW 2.3 km/h 2.6 km/h 97 % 0 mm
23:33 -15.7 °C -15.9 °C 34693 hPa NNW 2.3 km/h 5.1 km/h 97 % 0 mm
23:39 -15.7 °C -15.9 °C 34693 hPa Calm   5.1 km/h 97 % 0 mm
23:45 -15.7 °C -15.9 °C 34693 hPa NNW 2.3 km/h 5.1 km/h 97 % 0 mm
23:51 -15.8 °C -16 °C 34693 hPa NNW 2.3 km/h 5.1 km/h 97 % 0 mm
23:58 -15.9 °C -16.1 °C 34693 hPa NNW 2.3 km/h 2.6 km/h 97 % 0 mm
Meteo18
Compliments of Weather Underground - 4 mb

Script developed by  Jim McMurry - jmcmurry@mwt.net Adapted for the template by  Wim van der Kuil - Leuven-Template.eu

You find our weather info also at:

European Weather Network

Weather Underground

Equipment we use:

Weather-station
Davis Vue

Weather-program
Meteobridge

Weather-server
Raspberry PI 2 B+

Provider
1 and 1

Davis Vue

Meteobridge

Raspberry PI 2 B+

1 and 1